Regional Weather Roundup
Issued by NWS Charleston, WV

Home | Current Version | Previous Version | Graphics & Text | Print | Product List | Glossary On
Versions: 1 2 3 4 5 6 7 8 9 10 11 12 13 14 15 16 17 18 19 20 21 22 23 24 25 26 27 28 29 30 31 32 33 34 35 36 37 38 39 40 41 42 43 44 45 46 47 48 49 50
000
ASUS41 KRLX 300910
RWRRLX
West Virginia Regional Weather Roundup
National Weather Service Charleston WV
500 AM EDT SUN APR 30 2017

Note: "fair" indicates few or no clouds below 12,000 feet with no
significant weather and/or obstructions to visibility.

WVZ003-301000-
Northern Panhandle of West Virginia

CITY           SKY/WX    TMP DP  RH WIND       PRES   REMARKS
WHEELING       TSTM      59  57  93 E12G24    30.02F FOG
$$

WVZ009-301000-
Northwest West Virginia

CITY           SKY/WX    TMP DP  RH WIND       PRES   REMARKS
PARKERSBURG    CLOUDY    64  63  96 CALM      30.02S FOG
$$

WVZ006-301000-
Western West Virginia

CITY           SKY/WX    TMP DP  RH WIND       PRES   REMARKS
HUNTINGTON     CLEAR     70  63  78 S5        29.99R
$$

WVZ015-301000-
West Central West Virginia

CITY           SKY/WX    TMP DP  RH WIND       PRES   REMARKS
CHARLESTON     PTCLDY    68  63  84 SE3       30.01R
$$

WVZ022-031-301000-
North Central West Virginia

CITY           SKY/WX    TMP DP  RH WIND       PRES   REMARKS
CLARKSBURG     PTCLDY    61  60  97 CALM      30.03S FOG
MORGANTOWN     PTCLDY    61  59  93 CALM      30.04R FOG
$$

WVZ025-035-042-045-301000-
Southern West Virginia

CITY           SKY/WX    TMP DP  RH WIND       PRES   REMARKS
BECKLEY        CLEAR     66  60  81 SE8       30.12S
LOGAN          NOT AVBL
BLUEFIELD      PTCLDY    67  59  75 S8G18     30.16R
LEWISBURG      CLEAR     58  56  93 CALM      30.14S
$$

WVZ047-301000-
Northern Mountains of West Virginia

CITY           SKY/WX    TMP DP  RH WIND       PRES   REMARKS
ELKINS         CLEAR     55  53  93 CALM      30.09R FOG
$$

WVZ052-301000-
Eastern Panhandle of West Virginia

CITY           SKY/WX    TMP DP  RH WIND       PRES   REMARKS
MARTINSBURG    PTCLDY    65  60  84 N6        30.06F
PETERSBURG     CLEAR     60  60  98 CALM      30.09R FOG
$$



USA.gov is the U.S. government's official web portal to all federal, state and local government web resources and services.